Hourly Data Report for August 04, 2002

SHERBROOKE A
QUEBEC

45°26'00.000" N
71°41'00.000" W
241.40 m
7028124
71610
YSC

Download Data

Hourly Data (August 2002)
Hourly Data Report for August 4, 2002
TIME
LST
Temp Definition
°C
Dew Point Definition
°C
Rel Hum Definition
%
Precip. Amount Definition
mm

Wind Dir Definition
10's deg

Wind Spd Definition
km/h
Visibility Definition
km
Stn Press Definition
kPa
Hmdx Definition


Wind Chill Definition


Weather Definition


00:00 15.0 14.5 97     0 12.9 99.38      
01:00 13.7 13.1 96   8 4 11.3 99.33      
02:00 14.2 13.7 97   9 6 15.0 99.31      
03:00 14.3 13.7 96   9 4 15.0 99.33      
04:00 14.2 13.7 97     0 15.0 99.32      
05:00 13.5 13.0 97   27 6 9.7 99.30      
06:00 14.8 14.3 97   30 6 12.9 99.37      
07:00 16.7 15.4 92     0 24.1 99.41     Mostly Cloudy
08:00 18.5 15.9 85     0 24.1 99.36     Mostly Cloudy
09:00 21.6 17.4 77     0 24.1 99.34 27   Mostly Cloudy
10:00 22.6 17.1 71   21 7 24.1 99.33 28   Mostly Cloudy
11:00 25.5 18.0 63   20 13 24.1 99.26 32   Mostly Cloudy
12:00 26.3 17.3 58   21 13 24.1 99.19 32   Mostly Cloudy
13:00 27.1 16.8 53   21 7 24.1 99.14 32   Mostly Cloudy
14:00 26.3 17.5 58   22 13 24.1 99.11 32   Mostly Cloudy
15:00 25.8 17.3 59   24 15 24.1 99.06 31   Cloudy
16:00 24.9 18.5 68   23 6 24.1 99.02 31   Cloudy
17:00 24.1 19.5 76   30 7 15.0 99.03 31    
18:00 23.0 19.1 79     0 15.0 98.97 30    
19:00 21.9 19.2 85   17 4 15.0 98.90 29    
20:00 20.8 18.9 89   18 6 15.0 98.91 27    
21:00 20.2 18.3 89     0 15.0 98.82 26    
22:00 19.0 18.0 94     0 15.0 98.75      
23:00 19.4 18.6 95   23 4 11.3 98.78      

Notes on Data Quality.

Legend

  • E = Estimated
  • M = Missing
  • NA = Not Available*
  • [empty] = Indicates an unobserved value
Date modified: